Location: Finney State Fishing Lake and Wildlife Area
(38.1834°N, 100.3310°W)
Time: 08:27:39
(UTC+00:00)

Cosmos 1025 Rocket - Pass Details

Date: 17 October 2021
Orbit: 594 x 618 km, 82.5° (Epoch: 28 November)

Event Time Altitude Azimuth Distance (km) Brightness Sun altitude
Rises 12:23:21 0° 181° (S) 2,863 6.6 -6.5°
Reaches altitude 10° 12:25:34 10° 179° (S) 1,960 5.7 -6.0°
Maximum altitude 12:29:53 73° 95° (E) 640 3.4 -5.2°
Drops below altitude 10° 12:34:13 10° 11° (NNE) 1,960 5.7 -4.4°
Sets 12:36:26 0° 10° (N) 2,864 6.5 -3.9°
